Location: Recife
(8.0585°S, 34.8848°W)
Time: 13:08:50
(UTC-03:00)

Vanguard 1 - Pass Details

Date: 16 April 2026
Orbit: 654 x 3817 km, 34.3° (Epoch: 11 May)

Event Time Altitude Azimuth Distance (km) Brightness Sun altitude
Rises 23:39:13 0° 291° (WNW) 7,783 14.6 -84.7°
Enters shadow 23:50:45 10° 316° (NW) 6,928 14.2 -82.0°
Exits shadow 00:00:39 12° 342° (NNW) 6,513 14.1 -79.6°
Drops below altitude 10° 00:06:02 10° 357° (N) 6,460 14.2 -78.3°
Sets 00:16:14 0° 24° (NNE) 6,778 14.5 -75.8°
